Asheville, NC

6:05 AM EDT on April 30, 2017 (GMT -0400)
Asheville Regional

Weather History for KAVL - May, 2015

Change the Weather History Date:

Tuesday, May 5, 2015

  Actual Average Record
Temperature  
Mean Temperature 65 °F 60 °F  
Max Temperature 79 °F 72 °F 90 °F (1950)
Min Temperature 51 °F 48 °F 32 °F (1997)
Degree Days  
Heating Degree Days 0 5  
Month to date heating degree days 28 28  
Since 1 July heating degree days 3968 4100  
Cooling Degree Days 0 1  
Month to date cooling degree days 0 4  
Year to date cooling degree days 19 12  
Growing Degree Days 15 (Base 50)    
Moisture  
Dew Point 51 °F    
Average Humidity 61    
Maximum Humidity 89    
Minimum Humidity 33    
Precipitation  
Precipitation 0.00 in 0.11 in 3.40 in (2013)
Month to date precipitation 0.00 0.57  
Year to date precipitation 12.90 15.16  
Snow  
Snow 0.00 in 0.00 in 0.00 in ()
Month to date snowfall 0.0 0.0  
Since 1 July snowfall 13.3 9.9  
Snow Depth 0.00 in    
Sea Level Pressure  
Sea Level Pressure 30.29 in    
Wind  
Wind Speed 4 mph (ESE)    
Max Wind Speed 17 mph    
Max Gust Speed 22 mph    
Visibility 10 miles    
Events      
T = Trace of Precipitation, MM = Missing Value Source: NWS Daily Summary

Daily Weather History Graph

Daily Weather History Graph

Search for Another Location

Airport or City:

Trip Planner

Search our weather history database for the weather conditions in past years. The results will help you decide how hot, cold, wet, or windy it might be!

Date:

Astronomy

May. 05, 2015 Rise Set
Actual Time 6:34 AM EDT 8:19 PM EDT
Civil Twilight 6:07 AM EDT 8:47 PM EDT
Nautical Twilight 5:34 AM EDT 9:20 PM EDT
Astronomical Twilight 4:58 AM EDT 9:55 PM EDT
Moon 9:54 PM EDT (5/5) 7:45 AM EDT (5/5)
Length of Visible Light 14h 39m
Length of Day
13h 44m
Full, 98% of the Moon is Illuminated
May 5
Full
May 11
Last Quarter
May 18
New
May 25
First Quarter
Jun 2
Full

Hourly Weather History & Observations

Time (EDT) Temp. Dew Point Humidity Pressure Visibility Wind Dir Wind Speed Gust Speed Precip Events Conditions
12:54 AM 63.0 °F 50.0 °F 63% 30.30 in 10.0 mi SE 4.6 mph - N/A   Overcast
1:54 AM 62.1 °F 51.1 °F 67% 30.28 in 10.0 mi Calm Calm - N/A   Overcast
2:54 AM 57.0 °F 51.1 °F 81% 30.29 in 10.0 mi Calm Calm - N/A   Clear
3:54 AM 55.9 °F 51.1 °F 84% 30.29 in 10.0 mi ESE 3.5 mph - N/A   Clear
4:54 AM 57.2 °F 50.0 °F 77% 30.34 in 10.0 mi Calm Calm - N/A   Clear
5:54 AM 55.0 °F 50.0 °F 83% 30.30 in 10.0 mi Calm Calm - N/A   Clear
6:54 AM 52.0 °F 48.9 °F 89% 30.32 in 10.0 mi Calm Calm - N/A   Clear
7:54 AM 55.9 °F 51.1 °F 84% 30.34 in 10.0 mi NNW 4.6 mph - N/A   Clear
8:54 AM 61.0 °F 52.0 °F 72% 30.34 in 10.0 mi NNW 4.6 mph - N/A   Partly Cloudy
9:54 AM 66.9 °F 52.0 °F 59% 30.33 in 10.0 mi North 6.9 mph - N/A   Clear
10:54 AM 72.0 °F 52.0 °F 49% 30.32 in 10.0 mi NNW 13.8 mph - N/A   Clear
11:54 AM 75.0 °F 50.0 °F 41% 30.30 in 10.0 mi North 9.2 mph - N/A   Clear
12:54 PM 77.0 °F 52.0 °F 42% 30.28 in 10.0 mi Variable 4.6 mph - N/A   Scattered Clouds
1:54 PM 73.9 °F 51.1 °F 45% 30.27 in 10.0 mi ESE 3.5 mph - N/A   Overcast
2:54 PM 77.0 °F 48.0 °F 36% 30.26 in 10.0 mi Variable 6.9 mph - N/A   Overcast
3:54 PM 75.0 °F 48.0 °F 38% 30.24 in 10.0 mi SSE 11.5 mph 17.3 mph N/A   Scattered Clouds
4:54 PM 77.0 °F 46.4 °F 34% 30.28 in 10.0 mi SE 9.2 mph - N/A   Overcast
5:54 PM 73.9 °F 51.1 °F 45% 30.23 in 10.0 mi South 9.2 mph - N/A   Mostly Cloudy
6:54 PM 73.9 °F 50.0 °F 43% 30.23 in 10.0 mi South 8.1 mph - N/A   Mostly Cloudy
7:54 PM 70.0 °F 51.1 °F 51% 30.23 in 10.0 mi SSE 4.6 mph - N/A   Mostly Cloudy
8:54 PM 66.9 °F 51.1 °F 57% 30.25 in 10.0 mi Calm Calm - N/A   Partly Cloudy
9:54 PM 66.0 °F 51.1 °F 59% 30.25 in 10.0 mi Calm Calm - N/A   Mostly Cloudy
10:54 PM 60.8 °F 51.8 °F 72% 30.32 in 10.0 mi Calm Calm - N/A   Clear
11:54 PM 59.0 °F 52.0 °F 78% 30.27 in 10.0 mi Calm Calm - N/A   Clear